Regional Weather Roundup
Issued by NWS Charleston, SC

Current Version | Previous Version | Graphics & Text | Print | Product List | Glossary On
Versions: 1 2 3 4 5 6 7 8 9 10 11 12 13 14 15 16 17 18 19 20 21 22 23 24 25 26 27 28 29 30 31 32 33 34 35 36 37 38 39 40 41 42 43 44 45 46 47 48 49 50
000
ASUS42 KCHS 301525
RWRCHS

REGIONAL WEATHER ROUNDUP
NATIONAL WEATHER SERVICE CHARLESTON SC
1100 AM EDT SAT AUG 30 2014

NOTE: "FAIR" INDICATES FEW OR NO CLOUDS BELOW 12,000 FEET WITH NO
SIGNIFICANT WEATHER AND/OR OBSTRUCTIONS TO VISIBILITY.

NOT ALL STATIONS ARE QUALITY CONTROLLED BY THE NATIONAL
WEATHER SERVICE. USE DATA WITH CAUTION...ESPECIALLY
DEWPOINT OBSERVATIONS.

SCZ027-030-031-034>040-042>050-301600-
...SOUTH CAROLINA...

CITY           SKY/WX    TMP DP  RH WIND       PRES   REMARKS
N CHARLESTON   MOSUNNY   88  74  63 NE7       30.20R HX  96
WATERFRONT PRK   N/A     84 N/A N/A E22         N/A
FORT JOHNSON   NOT AVBL
MOUNT PLEASANT FAIR      86  77  74 CALM      30.19S HX  97
JOHNS ISLAND   MOSUNNY   86  79  79 E10       30.20R HX  99
PINOPOLIS        N/A     86  75  70 NE2       30.12R HX  95
MONCKS CORNER    N/A     88  75  66 CALM      30.20R HX  97
SUMMERVILLE    FAIR      84  73  70 CALM      30.21R HX  91
BEAUFORT MCAS  MOSUNNY   88  74  63 SE9       30.19R HX  96
BEAUFORT ARPT  CLOUDY    86  77  74 E6        30.18S HX  97
HILTON HEAD IS MOSUNNY   86  77  74 E6        30.20R HX  97
GEORGETOWN     NOT AVBL
WALTERBORO     PTSUNNY   88  70  55 E7        30.20S HX  92
ORANGEBURG     MOSUNNY   85  71  63 SE8       30.20S HX  90
BARNWELL       FAIR      88  72  58 S5        30.19F HX  94
AIKEN          PTSUNNY   84  75  74 E5        30.23S HX  92
MANNING        FAIR      86  68  54 SE3       30.20F
KINGSTREE      NOT AVBL
COLUMBIA       PTSUNNY   86  72  62 SE6       30.19S HX  92
SUMTER         MOSUNNY   81  76  84 VRB5      30.20R
FLORENCE       MOSUNNY   86  71  60 VRB5      30.21R HX  91
MYRTLE BEACH   NOT AVBL
N MYRTLE BEACH MOSUNNY   85  73  67 SE8       30.20R HX  91

$$

GAZ063-065-086>088-099>101-113>116-118-119-134-136>141-150-301600-
...GEORGIA...

CITY           SKY/WX    TMP DP  RH WIND       PRES   REMARKS
SAVANNAH ARPT  PTSUNNY   88  72  58 SE8       30.18R HX  94
HUNTER AAF     PTSUNNY   89  76  64 E9        30.16R HX  99
FORT STEWART   MOSUNNY   88  74  63 E10       30.16S HX  97
STATESBORO     NOT AVBL
SYLVANIA       MOSUNNY   84  73  68 S5        30.19S HX  90
CLAXTON        NOT AVBL
THOMSON        PTSUNNY   86  79  78 E6        30.22S HX 100
AUGUSTA-BUSH   MOSUNNY   86  74  67 VRB5      30.17S HX  94
AUGUSTA-DANIEL PTSUNNY   85  74  69 VRB3      30.19S HX  92
SWAINSBORO     FAIR      90  77  66 SE7       30.18S HX 102
VIDALIA          N/A     88  73  62 E8        30.17S HX  96
ALMA           MOSUNNY   85  74  69 VRB6      30.17R HX  92
WAYCROSS       MOSUNNY   90  78  68 SE6       30.16S HX 104
JESUP            N/A     90  77  66 SE6       30.17S HX 102
BRUNSWICK      CLOUDY    88  73  62 SE3       30.17S HX  96
SAINT SIMONS   MOSUNNY   86  75  69 SE5       30.17S HX  95

$$

SCZ027-028-034-036>038-045-046-048>050-GAZ119-141-301600-
...LAKE AND SUPPLEMENTAL COASTAL OBSERVATIONS...

STATION/POSITION TIME  TEMP    WIND        PRES    WAVE   SWELL
                       AIR SEA DIR/SP/G            HT/PER HT/PER/DIR
                 (UTC) (F)     (DEG/KT/KT) (MB)    (FT/S) (FT/S/D)
UPR LAKE MARION  NOT AVBL
WINYAH BAY       1500   83     100/  5     1022.0S
LAKE MURRAY      1500   85     180/  2/  4 1021.7F
ACE BASIN NERRS  1500   87     110/  3     1022.0S
FORT PULASKI     1500   83      80/ 11/ 13 1022.3S
SAPELO ISLAND    1500   87     100/  5     1022.0S

$$

ANZ835-935-AMZ111-154-330-350-352-354-374-450-454-472-301600-
...C-MAN AND BUOY OBSERVATIONS...

STATION/POSITION TIME  TEMP    WIND        PRES    WAVE   SWELL
                       AIR SEA DIR/SP/G            HT/PER HT/PER/DIR
                 (UTC) (F)     (DEG/KT/KT) (MB)    (FT/S) (FT/S/D)
FOLLY BEACH CMAN 1500   83      80/  9/ 10 1023.0R
BUOY 41004       1500   82 83   50/  8/ 10 1022.0R   2/ 8   2/ 8
BUOY 41008       1500   83 84   80/  4/  4 1021.5R   2/ 8   2/100/ 8
5E ST. MARYS GA  1500      84                N/A     2/ 8
FRYING PAN BUOY  NOT AVBL
BUOY 41025       1500   81     300/  6/  6 1023.4R   3/ 8   3/110/ 8
CAPE LOOKOUT NC  1500   81     110/  5/  6 1023.5R
BUOY 41002       1354   78 81   CALM  /  2 1023.7    3/ 8   3/130/ 8
BUOY 41010       1500   82 84  220/  4/  6 1021.8R   3/ 8   3/110/ 8
BUOY 41012       NOT AVBL
ST AUGUSTINE FL  1500   81     100/  5/  6 1022.0S
CAPERS NEARSHORE 1400   83      80/  8/ 10   N/A
FRIPP NEARSHORE  NOT AVBL


$$



USA.gov is the U.S. government's official web portal to all federal, state and local government web resources and services.